Content
SEND FEEDBACK

Daily
Averages
Monthly
Summary
United States of America

GAINES SCHOOL, GEORGIA


Home > North America > United States > Georgia
Elevation: 810 feet     Latitude: 33 57N     Longitude: 083 19W

WEATHER
 
SELECT A DAY
Number of Records: 216,669;   Date Range: 1/1/95 - 7/27/14
 
SHARE

PRINT THIS DATA

[ ← Previous Day ]
WEATHER ALMANAC - JANUARY 23, 2013
[ Next Day → ]
[ °C ]   °F
Weather ElementAverageHighLow
Temperature40 °F52 °F (1:51 pm)26.1 °F (6:51 am)
Dewpoint20.9 °F34 °F (11:51 pm)12 °F (4:51 am)
Humidity47.6 %61 % (11:51 pm)32 % (12:51 pm)
Barometer30.28 in30.39 in (9:51 am)30.17 in (11:51 pm)
Wind Speed5.2 mph13.8 mph (4:51 pm)
Wind Gust21.9 mph (1:51 pm)
Weather ElementAverage
Visibility10 mi
Wind DirectionSSW (199.6 °)

Weather ElementTotal
Precipitation---
Heating Degree Days26 (Base 65)
Averaged from 23 records on January 23, 2013
WEATHER CONDITIONS BREAKOUT
WIND DIRECTION BREAKOUT
WEATHER BY HOUR - JANUARY 23, 2013
[ °C ]   °F
Local TimeTemperatureDewpointHumidityBarometerVisibilityWind DirectionWind SpeedGust SpeedPrecipitationEventsConditions
1:51 AM30.0 °F12.9 °F49 %30.32 in10.0 miWest (280°)4.6 mphClear
2:51 AM28.9 °F12.9 °F51 %30.33 in10.0 miWest (280°)3.5 mphClear
3:51 AM28.0 °F12.9 °F53 %30.32 in10.0 miWNW (300°)3.5 mphClear
4:51 AM28.0 °F12.0 °F51 %30.32 in10.0 miCalmClear
5:51 AM27.0 °F12.9 °F56 %30.33 in10.0 miCalmClear
6:51 AM26.1 °F14.0 °F60 %30.35 in10.0 miWNW (300°)4.6 mphClear
7:51 AM27.0 °F14.0 °F58 %30.36 in10.0 miWest (280°)3.5 mphClear
8:51 AM32.0 °F16.0 °F52 %30.37 in10.0 miWest (260°)3.5 mphClear
9:51 AM36.0 °F16.0 °F44 %30.39 in10.0 miWSW (240°)6.9 mphClear
10:51 AM43.0 °F16.0 °F34 %30.38 in10.0 miVariable5.8 mphClear
11:51 AM46.0 °F19.0 °F34 %30.37 in10.0 miWNW (290°)10.4 mph18.4 mphClear
12:51 PM50.0 °F21.0 °F32 %30.32 in10.0 miWNW (290°)9.2 mph16.1 mphClear
1:51 PM52.0 °F25.0 °F35 %30.27 in10.0 miWest (280°)10.4 mph21.9 mphClear
2:51 PM51.8 °F24.8 °F35 %30.23 in10.0 miVariable6.9 mph18.4 mphClear
3:51 PM51.8 °F26.6 °F38 %30.23 in10.0 miWest (260°)10.4 mph16.1 mphClear
4:51 PM51.1 °F25.0 °F36 %30.23 in10.0 miWest (280°)13.8 mph18.4 mphClear
5:51 PM48.0 °F25.0 °F41 %30.23 in10.0 miWest (270°)4.6 mphClear
6:51 PM44.1 °F26.1 °F49 %30.23 in10.0 miCalmClear
7:51 PM42.1 °F26.1 °F53 %30.20 in10.0 miCalmClear
8:51 PM41.0 °F27.0 °F57 %30.19 in10.0 miSW (220°)3.5 mphMostly Cloudy
9:51 PM44.1 °F28.9 °F55 %30.19 in10.0 miWSW (250°)4.6 mphOvercast
10:51 PM45.0 °F32.0 °F60 %30.19 in10.0 miWSW (250°)4.6 mphOvercast
11:51 PM46.9 °F34.0 °F61 %30.17 in10.0 miWest (260°)5.8 mphOvercast
Hourly data recorded from KAHN, located miles away from Gaines School, Georgia







STORIES FROM OUR PARTNERS